Regional Weather Roundup
Issued by NWS

Home | Current Version | Previous Version | Graphics & Text | Print | Product List | Glossary On
Versions: 1 2 3 4 5 6 7 8 9 10 11 12 13 14 15 16 17 18 19 20 21 22 23 24 25 26 27 28 29 30 31 32 33 34 35 36 37 38 39 40 41 42 43 44 45 46 47 48 49 50
126
ASUS43 KTOP 220208
RWRKS

WEATHER ROUNDUP FOR KANSAS
NATIONAL WEATHER SERVICE GOODLAND KS
900 PM CDT SAT OCT 21 2017

NOTE:  "FAIR" INDICATES FEW OR NO CLOUDS BELOW 12,000 FEET WITH NO
SIGNIFICANT WEATHER AND/OR OBSTRUCTIONS TO VISIBILITY.

KSZ001>006-013>018-027>032-041>047-220300-
NORTHWEST KANSAS

CITY           SKY/WX    TMP DP  RH WIND       PRES   REMARKS
GOODLAND       CLEAR     41  19  41 NW10      30.05S
HAYS           CLOUDY    46  37  71 N7        30.00F
HILL CITY      CLEAR     42  37  82 NW5       30.02R
RUSSELL        CLOUDY    52  41  66 N7        29.97F
$$

KSZ061>065-074>080-084>089-220300-
SOUTHWEST KANSAS

CITY           SKY/WX    TMP DP  RH WIND       PRES   REMARKS
DODGE CITY     CLEAR     45  32  60 N7        30.01R
ELKHART          N/A     51  24  34 N9          N/A
GARDEN CITY    CLEAR     43  29  57 N12       30.01F
GREAT BEND     CLOUDY    54  39  57 N12       29.99R
LIBERAL        CLEAR     45  31  58 N8        30.03R
PRATT          CLOUDY    57  37  46 N14       29.99R
$$

KSZ066>073-081>083-090>101-220300-
SOUTHEAST KANSAS

CITY           SKY/WX    TMP DP  RH WIND       PRES   REMARKS
CHANUTE        TSTM      59  56  89 NW16G24   29.92R
COFFEYVILLE    CLOUDY    73  65  75 S7        29.84R
HUTCHINSON     CLOUDY    60  43  53 NW14G23   29.96R
MEDICINE LODGE   N/A     61  37  41 N17G32    29.94R
NEWTON         LGT RAIN  54  50  87 N10       29.95R
PARSONS        LGT RAIN  64  56  75 NW40G56   29.92R
WICHITA INTL   CLOUDY    58  53  84 N8        29.93R
WICHITA JABRA  LGT RAIN  56  52  86 N10       29.93R
WICHITA MCCONL LGT RAIN  55  52  88 NE10      29.95R
WINFIELD       RAIN      57  54  89 NE18G24   29.89S FOG
$$

KSZ007>012-019>026-033>040-048>060-102>105-220300-
NORTHEAST KANSAS

CITY           SKY/WX    TMP DP  RH WIND       PRES   REMARKS
CONCORDIA      MOCLDY    54  40  59 NW12      29.95F
EMPORIA        RAIN      55  52  89 NW14G20   29.92R
LAWRENCE       RAIN      58  56  93 NW13      29.91R
MANHATTAN      LGT RAIN  59  44  57 N8        29.94R
MARYSVILLE     CLOUDY    55  41  58 N17       29.94S
OLATHE IND     TSTM      59  58  96 NW21G29   29.88F VSB 1
OLATHE EXE     TSTM      59  59 100 NW10G18   29.88R FOG
SALINA         CLOUDY    59  42  53 N16       29.98R
TOPEKA BILLARD RAIN      57  54  89 W9        29.96R
TOPEKA FORBES  RAIN      57  53  86 NW13      29.95R FOG
$$




USA.gov is the U.S. government's official web portal to all federal, state and local government web resources and services.